This demonstration page uses our WeatherBlox Daily Observations layout. Learn more.

Left ArrowRight Arrow

39.08367, -84.50855

Hourly Observations for October 25, 2015

Temp ( °F °C ) Dew Point ( °F °C ) Humidity (%) Winds ( mph kmh ) Pressure ( in mb ) Visibility ( mi km ) Precip ( " mm )
12:53 am 00:53 Cloudy 59 15 53 11.7 81 81 VRB 7 11 30.09 1019 10 16 0.00 0.00
1:53 am 01:53 Mostly Cloudy 58 14.4 52 11.1 81 81 VRB 5 7 30.10 1019 10 16 0.00 0.00
2:53 am 02:53 Mostly Cloudy 58 14.4 52 11.1 81 81 WNW 5 7 30.12 1020 10 16 0.00 0.00
3:33 am 03:33 Cloudy 58 14.4 52 11.1 81 81 WNW 9 15 30.15 1021 10 16 0.00 0.00
3:53 am 03:53 Cloudy 57 13.9 52 11.1 83 83 NW 6 9 30.14 1021 10 16 0.00 0.00
4:53 am 04:53 Cloudy 56 13.3 50 10 81 81 NNW 9 15 30.17 1022 10 16 0.00 0.00
5:39 am 05:39 Cloudy 56 13.3 50 10 81 81 WNW 3 6 30.18 1022 10 16 0.00 0.00
5:53 am 05:53 Cloudy 56 13.3 50 10 81 81 NW 5 7 30.19 1022 10 16 0.00 0.00
6:11 am 06:11 Cloudy 56 13.3 50 10 81 81 NNW 8 13 30.21 1023 10 16 0.00 0.00
6:41 am 06:41 Cloudy 56 13.3 50 10 81 81 NNW 5 7 30.21 1023 10 16 0.00 0.00
6:53 am 06:53 Cloudy 55 12.8 50 10 83 83 N 8 13 30.22 1023 10 16 0.00 0.00
7:04 am 07:04 Cloudy 55 12.8 50 10 83 83 NNW 8 13 30.21 1023 10 16 0.00 0.00
7:53 am 07:53 Partly Cloudy 53 11.7 48 8.9 83 83 NNW 6 9 30.24 1024 10 16 0.00 0.00
8:53 am 08:53 Sunny 53 11.7 47 8.3 80 80 N 8 13 30.27 1025 10 16 0.00 0.00
9:53 am 09:53 Partly Cloudy 55 12.8 48 8.9 77 77 N 7 11 30.30 1026 10 16 0.00 0.00
10:53 am 10:53 Mostly Cloudy 56 13.3 47 8.3 72 72 N 8 13 30.32 1027 10 16 0.00 0.00
11:53 am 11:53 Mostly Cloudy 56 13.3 44 6.7 65 65 N 8 13 30.32 1027 10 16 0.00 0.00
12:53 pm 12:53 Mostly Cloudy 59 15 44 6.7 58 58 NNE 7 11 30.32 1027 10 16 0.00 0.00
1:53 pm 13:53 Mostly Sunny 61 16.1 44 6.7 54 54 NE 13 20 30.29 1026 10 16 0.00 0.00
2:53 pm 14:53 Sunny 61 16.1 43 6.1 52 52 NNE 8 13 30.28 1025 10 16 0.00 0.00
3:53 pm 15:53 Sunny 61 16.1 41 5 48 48 N 9 15 30.28 1025 10 16 0.00 0.00
4:53 pm 16:53 Sunny 60 15.6 42 5.6 52 52 NNE 10 17 30.29 1026 10 16 0.00 0.00
5:53 pm 17:53 Sunny 57 13.9 42 5.6 58 58 NE 8 13 30.32 1027 10 16 0.00 0.00
6:53 pm 18:53 Clear 53 11.7 43 6.1 69 69 ENE 5 7 30.32 1027 10 16 0.00 0.00
7:53 pm 19:53 Clear 50 10 44 6.7 80 80 NNE 3 6 30.33 1027 10 16 0.00 0.00
8:53 pm 20:53 Clear 47 8.3 43 6.1 86 86 Calm 30.34 1027 10 16 0.00 0.00
9:53 pm 21:53 Clear 46 7.8 44 6.7 93 93 Calm 30.34 1027 10 16 0.00 0.00
10:53 pm 22:53 Clear 45 7.2 44 6.7 97 97 Calm 30.36 1028 10 16 0.00 0.00
11:53 pm 23:53 Clear 43 6.1 41 5 93 93 NNE 7 11 30.35 1028 10 16 0.00 0.00

Powered by AerisWeather